Weather History for KBFI - September, 2014

Change the Weather History Date:

Sunday, September 7, 2014

  Actual Average Record
Temperature  
Mean Temperature 72 °F -  
Max Temperature 87 °F 71 °F 94 °F (1981)
Min Temperature 57 °F 53 °F 45 °F (1960)
Cooling Degree Days 6    
Growing Degree Days 22 (Base 50)    
Moisture  
Dew Point 51 °F    
Average Humidity 54    
Maximum Humidity 81    
Minimum Humidity 20    
Precipitation  
Precipitation 0.00 in - - ()
Sea Level Pressure  
Sea Level Pressure 29.85 in    
Wind  
Wind Speed 3 mph (SSE)    
Max Wind Speed 8 mph    
Max Gust Speed -    
Visibility 10 miles    
Events      
Averages and records for this station are not official NWS values.
T = Trace of Precipitation, MM = Missing Value Source: NWS Daily Summary

Daily Weather History Graph

Daily Weather History Graph

Search for Another Location

Airport or City:

Trip Planner

Search our weather history database for the weather conditions in past years. The results will help you decide how hot, cold, wet, or windy it might be!

Date:

Astronomy

Sep. 07, 2014 Rise Set
Actual Time 6:36 AM PDT 7:37 PM PDT
Civil Twilight 6:04 AM PDT 8:08 PM PDT
Nautical Twilight 5:26 AM PDT 8:46 PM PDT
Astronomical Twilight 4:46 AM PDT 9:25 PM PDT
Moon 6:42 PM PDT (9/7) 4:51 AM PDT (9/7)
Length of Visible Light 14h 04m
Length of Day
13h 01m
Waxing Gibbous, 97% of the Moon is Illuminated
Sep 7
Waxing Gibbous
Sep 8
Full
Sep 15
Last Quarter
Sep 23
New
Oct 1
First Quarter

Hourly Weather History & Observations

Time (PDT) Temp. Dew Point Humidity Pressure Visibility Wind Dir Wind Speed Gust Speed Precip Events Conditions
12:53 AM 66.0 °F 53.1 °F 63% 29.87 in 10.0 mi Calm Calm - N/A   Clear
1:53 AM 64.0 °F 53.1 °F 67% 29.87 in 10.0 mi Calm Calm - N/A   Clear
2:53 AM 63.0 °F 54.0 °F 72% 29.87 in 10.0 mi Calm Calm - N/A   Clear
3:53 AM 60.1 °F 53.1 °F 78% 29.87 in 10.0 mi SE 4.6 mph - N/A   Clear
4:53 AM 59.0 °F 53.1 °F 81% 29.86 in 10.0 mi SSE 4.6 mph - N/A   Clear
5:53 AM 57.9 °F 52.0 °F 81% 29.87 in 10.0 mi SE 8.1 mph - N/A   Clear
6:53 AM 59.0 °F 53.1 °F 81% 29.88 in 10.0 mi SE 8.1 mph - N/A   Clear
7:53 AM 61.0 °F 54.0 °F 78% 29.89 in 10.0 mi SE 6.9 mph - N/A   Clear
8:53 AM 64.0 °F 54.0 °F 70% 29.90 in 10.0 mi SE 4.6 mph - N/A   Clear
9:53 AM 69.1 °F 53.1 °F 57% 29.90 in 10.0 mi East 3.5 mph - N/A   Clear
10:53 AM 73.0 °F 54.0 °F 51% 29.89 in 10.0 mi Variable 3.5 mph - N/A   Clear
11:53 AM 75.0 °F 54.0 °F 48% 29.88 in 10.0 mi NW 4.6 mph - N/A   Clear
12:53 PM 78.1 °F 53.1 °F 42% 29.87 in 10.0 mi WNW 4.6 mph - N/A   Clear
1:53 PM 80.6 °F 51.8 °F 37% 29.85 in 10.0 mi Variable 4.6 mph - N/A   Clear
2:53 PM 82.0 °F 48.0 °F 30% 29.84 in 10.0 mi Variable 4.6 mph - N/A   Clear
3:53 PM 84.9 °F 46.9 °F 27% 29.83 in 10.0 mi Variable 4.6 mph - N/A   Clear
4:53 PM 86.0 °F 41.0 °F 20% 29.81 in 10.0 mi WNW 4.6 mph - N/A   Partly Cloudy
5:53 PM 84.9 °F 42.1 °F 22% 29.80 in 10.0 mi NW 3.5 mph - N/A   Partly Cloudy
6:53 PM 81.0 °F 44.1 °F 27% 29.79 in 10.0 mi NNW 3.5 mph - N/A   Clear
7:53 PM 77.0 °F 46.4 °F 34% 29.79 in 10.0 mi Calm Calm - N/A   Clear
8:53 PM 73.4 °F 50.0 °F 44% 29.80 in 10.0 mi Calm Calm - N/A   Clear
9:53 PM 71.1 °F 54.0 °F 55% 29.82 in 10.0 mi South 5.8 mph - N/A   Clear
10:53 PM 68.0 °F 55.0 °F 63% 29.83 in 10.0 mi South 5.8 mph - N/A   Clear
11:53 PM 64.0 °F 55.0 °F 73% 29.84 in 10.0 mi SSE 6.9 mph - N/A   Clear